Presure
169 178 173 197 176 174 182 195 203 214 217 188 170 147 196 205 202 198 187 188 178 186 129 191 180 210 135 134 133 179 172 206 182 203 168 196 198 205 184 203 193 172 179 189 169 163 173 151 156 178 162 186 188 152
169 184 165 174 176 197 171 188 186 198 210 249 159 163 166 193 201 196 198 203 204 188 196 136 198 149 138 198 161 203 204 199 194 209 204 198 194 192 196 187 201 190 205 202 204 193 156 184 183 174 149 119 158 164
193 180 177 181 168 188 171 170 185 180 205 204 226 156 242 201 208 212 201 205 202 201 197 194 198 151 168 149 140 124 204 194 201 199 204 198 194 202 201 193 204 199 169 149 172 194 176 172 160 181 153 149 166 164
162 164 175 179 193 172 180 176 181 183 188 192 201 206 269 257 150 211 162 206 200 199 196 194 193 189 131 132 133 171 142 198 197 194 199 198 196 196 199 174 193 192 195 199 202 193 196 198 194 150 150 132 169 140
166 153 171 184 177 170 163 183 179 184 180 201 193 188 211 233 238 232 182 224 136 207 201 202 202 194 128 186 129 174 131 132 127 196 195 196 200 196 195 195 193 203 197 197 191 194 203 201 196 197 190 123 164 146
176 183 163 191 170 195 193 163 181 175 182 192 214 199 196 224 204 271 240 155 201 213 219 151 205 212 136 205 127 201 127 137 136 211 186 183 212 216 226 225 219 158 217 237 220 216 222 225 230 202 232 225 145 142
174 179 161 193 176 173 198 174 185 187 191 170 199 197 210 203 201 204 274 230 222 173 177 174 158 160 196 168 212 217 213 218 218 135 234 230 216 217 214 216 226 216 220 223 224 228 229 229 211 217 222 213 215 221
157 176 189 158 176 201 181 187 175 192 173 184 178 182 191 197 197 217 200 294 267 219 168 225 184 170 215 210 210 164 209 192 132 228 215 166 211 213 213 212 215 212 219 223 144 220 190 219 224 223 226 228 227 225
147 178 182 174 184 178 203 191 169 182 196 198 177 181 179 189 192 210 184 212 272 279 252 213 236 225 214 180 212 190 177 182 175 126 194 188 202 194 215 208 212 214 226 215 198 218 220 220 222 218 223 228 158 224
184 170 150 187 171 164 201 168 199 177 205 197 195 173 196 188 190 183 194 189 209 205 240 278 263 200 245 243 173 145 183 192 173 167 164 177 211 220 215 206 216 218 219 219 220 216 213 211 213 230 221 219 221 220
180 163 185 188 163 171 191 179 188 182 184 218 201 173 197 185 183 181 196 186 191 205 204 227 234 231 240 249 191 249 249 244 224 192 151 216 212 191 179 174 181 196 205 202 211 214 213 217 215 215 219 163 215 215
196 139 190 190 175 160 180 177 187 175 207 198 201 206 175 186 181 213 196 200 190 207 189 193 190 199 220 245 244 260 253 252 250 122 234 197 165 171 169 199 164 173 194 150 171 177 191 210 198 210 212 164 179 171
184 167 135 152 193 191 166 204 184 173 196 185 175 179 212 214 209 195 180 186 188 215 193 202 196 198 206 216 226 222 224 276 284 183 171 214 225 172 156 217 188 182 199 210 182 190 229 215 199 189 210 184 187 189
201 190 193 199 182 180 204 185 144 199 169 179 205 192 192 212 214 185 220 195 220 187 181 205 189 185 208 200 198 207 216 215 247 262 297 295 152 248 234 151 231 204 169 169 217 194 190 214 195 202 189 158 197 212
191 189 186 191 158 184 196 186 188 212 180 202 190 216 180 197 200 200 214 190 187 221 209 199 200 189 196 196 207 222 203 217 233 212 285 375 354 287 273 248 161 230 230 180 150 169 207 213 197 181 213 219 149 196
222 206 204 138 185 201 193 206 194 177 213 181 193 177 180 218 186 224 212 189 208 204 191 206 197 193 197 199 196 195 198 204 226 234 229 249 374 345 250 271 195 249 157 226 232 231 222 222 202 220 175 170 210 168
209 225 222 210 202 204 198 204 199 182 197 204 179 206 190 228 185 219 194 206 200 220 211 235 230 203 193 200 205 214 206 201 211 220 213 232 241 313 353 291 275 255 260 249 179 235 228 169 225 199 230 223 222 225
140 158 222 203 193 210 209 214 203 151 204 200 193 208 191 181 215 201 196 207 219 195 189 219 218 197 188 203 189 238 219 209 207 208 205 226 220 230 255 282 310 280 272 261 260 249 243 173 237 206 220 225 227 227
189 177 247 223 203 157 207 144 209 216 198 178 207 201 218 205 191 185 237 216 211 221 218 210 227 233 223 225 209 204 217 220 212 194 225 233 235 226 227 262 266 258 356 237 212 257 254 246 247 240 209 213 215 160
238 223 185 177 221 188 214 188 224 193 214 193 208 229 187 222 212 189 200 230 232 227 229 221 196 197 232 222 222 228 222 224 223 221 213 216 193 223 227 223 267 251 278 287 345 201 260 255 250 249 243 175 132 186
236 217 251 245 232 195 236 229 242 159 222 231 230 225 227 217 188 189 189 212 226 235 233 238 224 235 231 219 230 203 201 220 210 206 254 247 213 229 240 209 234 215 271 290 271 330 281 264 184 251 244 245 166 161
231 159 231 182 199 194 255 246 177 220 206 234 238 237 233 176 190 209 195 218 189 227 242 201 239 244 232 229 213 230 197 215 222 222 219 198 209 238 223 245 225 268 260 276 276 326 311 276 266 257 248 247 244 175
262 213 184 201 200 210 201 225 182 211 223 224 179 231 238 197 203 210 188 243 222 237 245 247 253 250 238 232 248 195 227 219 223 217 214 219 227 226 253 217 243 260 246 267 291 305 310 298 276 262 254 251 237 196
280 250 240 231 245 257 252 205 190 230 203 192 208 227 233 209 200 204 198 209 239 251 244 236 245 255 242 245 248 255 239 261 219 221 245 226 220 240 236 241 245 261 270 263 293 347 316 298 278 265 254 250 244 203
254 253 270 208 198 256 174 196 227 207 216 219 217 250 244 205 212 197 242 195 224 249 255 257 265 244 239 232 235 253 254 259 275 245 225 198 226 243 219 248 267 254 270 287 301 348 318 289 278 265 256 249 248 200
271 240 273 277 270 261 258 204 250 240 244 251 249 230 249 182 178 197 229 228 252 222 238 228 256 247 234 242 254 266 258 262 258 270 239 237 227 224 275 276 274 276 286 294 375 343 312 285 277 267 251 249 249 246
278 261 264 149 159 261 250 253 223 251 214 218 176 185 183 243 247 264 224 201 199 260 247 221 255 251 222 233 243 251 249 254 260 275 258 231 254 259 256 271 271 282 296 407 360 331 305 283 272 266 253 248 249 247
275 275 273 264 104 85 256 261 256 247 240 247 243 256 238 250 253 259 239 260 264 264 264 262 252 250 253 249 247 252 257 261 278 274 240 239 250 252 266 274 279 301 407 376 339 317 293 274 264 192 256 235 252 250
269 268 282 267 102 194 186 227 248 252 244 206 250 190 259 249 272 257 257 258 265 262 266 258 269 270 234 253 264 279 284 260 308 264 262 294 281 257 273 298 309 412 381 347 322 297 281 264 159 262 161 256 252 247
267 274 269 262 248 260 259 225 231 253 255 168 257 238 268 260 269 266 267 262 253 262 257 274 270 256 274 278 195 275 274 314 262 249 307 264 293 279 318 352 411 374 347 324 299 285 242 141 263 153 253 254 247 243
286 273 264 264 255 258 255 177 231 253 266 268 268 271 274 271 278 277 266 263 268 272 265 255 270 266 254 171 281 275 274 248 256 291 289 277 307 316 419 383 354 341 323 299 287 272 263 259 242 253 253 253 252 256
305 284 279 274 264 258 274 269 271 269 266 270 274 277 276 280 283 283 274 274 274 258 277 268 282 256 268 291 305 245 252 303 288 286 308 394 412 396 372 354 336 321 299 289 273 265 258 254 254 254 249 254 252 248
322 300 295 278 285 279 281 283 282 283 289 280 282 285 280 280 275 267 269 277 289 277 276 285 276 290 270 273 267 307 284 285 310 357 421 407 386 360 167 325 314 294 286 278 268 261 253 259 260 252 242 253 228 248
Wind_Speed
36 32 28 40 36 39 42 56 63 62 47 17 14 15 17 19 17 15 12 11 10 12 10 17 14 27 8 7 7 11 9 17 11 13 9 6 10 19 7 19 11 8 5 12 12 13 1 24 20 10 4 15 21 32
34 39 25 24 31 54 28 45 42 49 50 53 6 10 15 15 14 12 12 13 15 8 10 13 12 12 11 12 2 14 13 8 4 18 13 8 6 8 11 8 15 11 18 16 18 12 21 13 17 14 28 20 27 17
53 42 34 28 21 40 28 24 42 26 58 46 53 2 26 16 20 17 9 13 9 8 7 6 9 10 3 6 6 12 13 5 10 8 12 9 8 12 13 11 18 16 19 21 10 21 18 14 23 21 29 34 21 24
32 31 34 38 39 24 27 35 28 39 35 36 39 42 27 25 2 14 14 13 9 8 7 4 4 6 16 14 13 8 9 11 12 14 14 13 13 14 15 19 15 16 18 22 24 22 24 26 27 36 38 31 20 42
36 28 34 50 30 26 22 27 29 28 34 41 36 20 47 35 22 23 23 18 25 13 11 12 11 10 20 10 20 15 16 13 18 21 22 23 22 21 21 21 22 23 25 26 26 28 30 32 33 29 33 32 39 49
42 49 35 59 31 46 31 24 30 31 29 34 40 44 30 57 35 24 22 8 20 21 16 3 18 21 26 19 26 18 22 17 17 26 16 25 28 24 19 21 27 27 29 24 32 36 35 33 32 28 35 36 45 46
47 45 35 61 34 34 42 30 29 32 22 27 31 36 46 43 32 34 23 24 22 16 19 27 17 13 20 22 25 25 26 26 26 22 21 18 27 26 29 28 24 31 30 31 32 33 33 35 44 44 45 39 44 44
38 45 61 33 38 61 36 35 31 31 34 30 33 36 37 40 35 52 33 28 32 27 20 28 30 25 24 23 22 26 24 23 22 27 27 24 31 33 33 35 34 38 35 33 31 37 41 43 43 45 46 49 51 54
35 51 54 49 47 38 63 40 32 31 24 35 37 37 36 35 36 52 20 41 27 34 35 29 31 29 31 27 28 28 31 34 25 27 34 45 35 35 40 40 38 37 32 39 40 43 44 46 46 52 50 52 35 59
65 50 38 56 47 43 54 40 46 37 37 28 31 38 32 33 37 28 48 28 52 34 25 36 32 35 33 38 24 29 30 32 41 31 33 35 52 31 43 44 42 41 38 39 40 42 45 50 54 50 55 57 60 63
62 51 63 56 51 48 47 45 41 41 39 63 32 39 25 43 44 39 35 37 43 54 48 25 25 28 27 30 32 41 45 44 38 41 39 47 57 36 26 28 42 53 51 41 49 47 48 49 53 56 58 48 63 66
82 39 73 63 54 40 50 48 43 48 60 47 43 47 45 44 46 30 38 33 41 48 42 45 35 46 47 31 30 32 38 43 46 24 50 44 21 21 36 44 24 26 50 40 47 34 41 56 53 59 60 41 56 45
63 66 38 48 64 57 56 62 51 44 46 49 50 48 57 50 37 38 41 44 41 41 52 56 52 51 55 58 51 44 40 38 43 44 36 52 62 38 34 55 49 38 58 56 44 47 55 53 56 55 66 44 50 56
96 79 80 80 70 65 74 58 38 51 48 50 61 48 44 72 56 47 51 41 49 50 45 48 54 39 61 56 44 47 51 45 46 50 55 63 39 69 64 40 56 58 38 42 54 50 59 55 63 66 52 44 67 74
89 81 74 79 52 68 71 68 62 71 58 59 54 74 60 56 55 41 51 49 51 49 44 52 53 56 58 54 66 63 41 64 60 47 52 51 52 65 69 68 43 60 61 48 42 47 59 63 53 46 64 70 49 64
105 104 98 45 78 84 76 77 67 54 71 57 54 64 66 76 58 68 50 56 50 48 52 52 58 61 62 62 54 45 44 49 65 62 58 44 48 50 55 65 54 70 48 64 67 68 68 71 59 69 51 48 71 62
98 108 104 96 90 85 80 84 73 62 62 57 65 70 66 77 62 71 60 53 55 56 44 66 55 66 54 66 70 65 72 44 64 55 53 58 54 40 49 55 59 64 70 72 50 75 73 45 73 59 77 75 76 80
46 51 98 89 88 98 92 94 79 36 64 62 72 80 66 59 64 57 62 60 63 56 56 45 55 70 40 66 46 46 62 74 64 53 44 67 58 55 49 44 51 62 68 70 73 75 78 54 81 68 71 77 77 81
81 74 113 109 96 47 93 38 90 89 65 64 79 72 80 69 71 66 74 56 60 62 57 58 68 69 68 61 62 69 69 55 69 40 64 69 67 66 63 55 53 54 59 55 59 71 75 79 79 80 67 70 72 55
101 100 89 69 107 81 105 60 101 62 83 66 80 91 66 81 76 72 68 63 67 62 65 70 70 62 64 63 64 58 58 53 61 71 80 74 44 70 69 62 59 60 53 58 64 56 71 74 78 78 83 57 42 58
104 94 101 109 108 87 105 105 103 40 85 85 88 90 85 70 75 77 68 64 61 63 72 81 73 73 64 64 62 70 68 64 73 62 63 60 67 78 76 50 71 60 61 59 55 59 67 69 54 70 78 81 56 54
101 65 104 72 71 72 105 96 68 81 73 86 90 86 80 63 51 69 61 69 65 69 76 67 79 79 69 67 67 67 64 71 63 67 73 61 66 75 74 76 70 70 68 64 59 53 61 64 70 69 74 78 74 58
108 91 70 78 92 77 76 93 50 75 83 77 56 70 81 68 72 73 72 69 72 79 80 81 79 79 79 72 77 65 72 71 66 76 77 79 78 80 76 59 82 74 72 69 65 57 55 61 64 66 70 71 71 63
108 106 99 104 105 107 104 77 62 87 67 71 65 68 77 67 83 77 71 70 76 82 81 79 79 72 74 78 78 79 62 77 73 73 65 67 77 75 77 82 81 78 75 73 69 49 52 56 58 62 64 67 69 65
105 106 113 92 80 106 33 67 83 71 79 75 71 90 91 74 73 73 63 53 74 80 80 81 80 77 74 69 69 78 76 77 77 64 79 52 77 76 68 82 79 78 77 73 69 49 49 50 54 58 58 63 67 59
114 106 110 106 106 105 101 78 94 86 89 90 90 74 92 51 60 66 60 76 85 63 73 66 79 81 77 75 77 81 79 79 74 76 72 74 81 75 81 79 78 77 77 74 46 46 46 49 51 52 55 61 64 67
119 108 103 48 47 101 95 96 78 95 73 78 62 63 53 82 83 88 73 59 48 79 75 70 79 82 71 76 76 78 76 78 78 83 79 81 77 79 82 80 78 77 77 40 42 42 43 45 47 50 53 60 64 67
114 109 106 104 32 9 102 103 101 92 86 91 91 95 87 86 86 94 72 81 83 80 75 76 75 79 77 80 78 79 79 79 84 75 77 81 79 82 80 78 78 76 36 36 38 38 38 41 44 43 51 53 60 63
107 103 106 98 22 42 31 84 94 97 89 70 95 63 92 84 100 85 79 77 85 75 73 68 72 74 71 81 80 86 88 76 84 73 76 80 78 80 79 77 73 34 32 35 34 34 37 41 40 46 45 54 57 63
101 108 102 99 96 101 102 90 88 97 97 55 85 76 93 89 97 90 84 75 69 71 69 78 75 75 77 78 48 81 78 85 72 78 78 80 77 78 77 49 29 29 33 32 33 34 35 37 41 43 49 53 57 60
117 105 99 102 93 97 92 68 87 94 99 98 96 99 102 95 93 91 78 76 80 84 75 71 73 68 68 37 84 80 75 75 76 75 77 77 78 73 26 24 30 33 31 31 31 33 37 36 41 47 50 54 58 62
113 115 113 108 95 86 111 103 108 104 94 99 100 99 91 88 94 98 95 91 90 70 81 70 85 69 75 97 92 70 72 74 75 78 77 37 26 27 30 31 31 30 30 29 31 35 33 42 45 46 49 55 57 55
97 112 113 98 107 105 108 110 105 104 105 94 95 96 88 86 84 86 91 95 99 78 74 87 74 90 74 79 72 75 74 76 77 56 27 27 26 25 20 30 29 29 28 28 30 35 40 41 42 46 41 53 37 54
Wind_Direction
325 345 346 10 1 2 356 4 4 8 11 15 4 89 25 30 34 60 69 57 26 87 224 83 89 69 217 230 261 22 12 76 66 73 44 61 58 59 345 48 32 298 349 29 287 300 302 306 305 29 7 22 16 332
315 320 330 354 354 359 347 359 359 359 6 6 94 342 341 10 23 23 13 50 63 59 59 208 60 195 230 56 118 57 54 60 51 45 50 44 25 22 26 2 26 9 24 21 19 357 287 356 356 332 306 290 306 341
308 320 324 338 342 353 344 343 358 353 354 2 1 10 351 346 340 350 356 356 20 50 44 43 54 197 297 201 200 299 29 351 15 18 23 10 353 6 3 350 1 355 340 303 292 348 305 286 259 346 277 293 314 327
297 303 312 320 330 332 337 334 342 349 348 349 357 2 349 340 103 337 331 321 326 326 327 317 332 303 252 251 254 290 272 340 336 330 337 334 333 338 344 331 332 333 336 336 337 330 336 336 332 281 280 305 309 311
286 291 299 308 315 319 317 328 333 339 335 349 343 343 356 356 312 315 292 316 193 303 299 307 308 291 236 298 239 298 253 258 284 320 319 322 322 324 323 324 327 330 327 328 328 330 331 331 334 332 336 300 304 293
276 287 286 300 298 310 318 306 312 320 332 345 354 339 334 350 354 316 298 284 298 295 294 272 304 316 222 312 242 311 260 249 256 315 307 306 315 321 332 329 322 316 322 343 323 321 327 331 335 322 333 328 295 303
269 276 278 294 289 296 309 302 307 315 323 304 345 338 345 336 340 353 302 283 287 285 292 300 236 255 302 272 311 312 315 319 322 271 327 322 311 314 313 315 323 315 318 321 322 326 327 328 319 321 325 322 321 321
262 267 280 276 282 296 292 300 300 306 305 307 309 314 325 332 326 336 349 295 271 283 268 286 292 297 294 299 304 277 304 296 285 324 312 293 309 308 308 309 313 314 315 315 308 318 315 319 322 322 324 324 324 324
253 266 270 273 279 280 296 298 286 294 295 316 301 303 301 317 321 333 289 337 306 273 273 298 284 290 294 273 294 283 299 305 309 298 302 308 303 317 300 303 304 307 311 312 311 315 316 317 318 319 321 323 293 324
258 254 261 270 265 271 288 276 299 288 299 297 284 296 305 306 313 300 320 308 329 335 304 278 290 291 306 300 277 265 298 287 306 304 292 312 292 300 293 301 301 303 307 312 313 313 314 315 316 320 319 321 322 323
251 253 265 267 263 263 276 273 278 284 280 307 297 292 294 294 300 303 313 308 314 322 318 327 330 325 322 308 282 297 294 290 290 297 288 287 285 296 292 320 320 311 307 311 307 309 311 312 314 315 316 316 320 322
256 247 261 264 253 261 259 261 268 269 299 288 301 296 287 290 293 321 302 312 310 315 306 310 306 317 318 311 305 295 289 287 286 284 280 280 301 325 312 302 299 316 312 318 311 328 317 308 319 312 314 310 318 319
247 247 249 255 263 257 260 274 267 263 281 273 275 281 304 311 293 290 291 296 294 322 304 306 307 311 315 314 311 314 315 290 282 284 290 276 281 283 288 287 308 297 297 294 314 317 302 303 309 321 313 320 324 330
253 254 257 262 255 250 270 252 260 267 264 269 291 277 284 303 301 279 310 282 319 292 294 296 301 299 306 311 312 322 317 318 301 298 295 280 289 272 277 296 281 290 301 299 290 297 313 299 313 308 319 309 314 316
249 249 248 256 248 253 260 256 256 278 255 280 270 296 269 283 285 276 296 277 284 308 281 285 288 297 302 307 310 307 319 320 313 311 310 280 275 273 270 272 289 282 285 296 306 308 296 295 308 306 305 307 319 317
247 251 252 248 250 257 255 261 251 265 277 255 268 262 266 292 271 300 296 282 294 296 293 283 287 292 295 303 307 312 312 313 312 316 319 299 275 272 276 274 281 277 299 286 288 290 292 295 299 300 308 308 310 321
243 253 253 254 250 253 253 261 255 264 255 268 257 275 265 287 269 293 275 289 284 301 286 304 301 282 297 295 298 300 305 312 313 317 317 319 321 324 278 285 285 284 282 282 293 289 290 297 296 300 301 304 307 308
247 242 252 243 248 259 259 263 261 254 261 263 262 275 262 271 284 277 273 287 298 282 288 289 285 284 296 290 307 309 299 302 309 310 314 314 317 318 313 322 298 287 282 284 284 284 286 301 291 298 301 302 306 306
249 246 248 248 246 248 253 249 256 262 250 252 270 266 272 269 266 271 287 288 288 294 285 285 288 287 278 284 292 297 294 299 302 301 310 310 311 316 317 311 308 305 285 291 288 282 282 286 287 292 302 304 307 319
239 244 249 245 249 246 251 258 258 257 258 251 265 270 272 278 275 272 272 292 290 291 289 282 282 291 287 283 288 288 291 296 296 299 305 308 291 313 315 315 308 309 312 299 277 288 278 281 285 288 290 307 327 310
237 238 239 242 245 247 252 253 256 237 261 263 263 266 270 269 268 271 280 277 290 286 279 276 279 280 283 283 286 292 296 290 297 305 310 304 309 306 304 307 310 314 310 312 305 276 273 276 291 283 287 291 310 319
235 243 239 251 247 243 247 248 251 253 252 258 258 262 268 268 269 266 267 284 286 281 279 284 277 279 281 283 283 294 297 292 291 292 300 294 307 299 306 304 310 309 308 310 306 285 273 272 275 279 284 290 295 308
225 236 252 240 248 251 240 244 254 250 254 253 257 263 265 259 260 271 275 280 275 274 276 278 279 279 280 286 291 292 293 286 287 293 295 298 299 302 303 307 304 305 308 307 307 297 277 273 272 276 280 287 293 307
219 230 234 239 239 238 241 253 256 250 259 250 251 257 261 249 256 267 269 272 274 272 273 277 279 280 283 285 287 289 287 294 294 293 292 292 301 296 298 302 303 304 303 305 306 275 273 274 272 273 280 285 291 302
224 227 226 248 256 233 225 258 247 254 254 255 256 255 257 250 254 264 275 272 271 272 274 278 280 278 281 285 287 288 291 292 294 287 289 296 298 295 302 297 298 303 302 305 302 268 270 274 274 274 280 285 289 307
221 231 226 227 228 231 233 250 241 245 247 248 251 252 259 256 260 264 267 268 269 273 277 277 275 276 283 284 286 286 289 291 293 294 286 288 295 300 300 298 299 301 304 302 267 265 265 270 272 273 279 286 289 294
221 226 226 224 232 232 237 238 245 242 240 247 252 254 253 261 263 265 264 276 284 270 269 279 274 275 284 285 285 285 286 287 289 294 294 292 295 295 295 295 298 301 301 264 261 260 261 268 272 273 279 285 289 293
220 222 225 227 226 235 234 236 237 240 245 248 251 252 255 259 261 261 263 268 271 272 274 274 273 273 276 278 280 281 283 286 291 289 285 289 288 290 292 295 299 300 254 253 255 255 261 269 275 302 279 290 288 294
221 223 223 224 220 227 232 239 241 243 245 255 249 256 255 258 257 262 264 267 271 273 277 278 279 278 278 278 282 292 291 284 295 285 288 296 292 291 294 298 299 242 243 245 247 252 260 272 312 276 318 286 291 296
224 223 224 228 228 234 236 233 241 244 245 252 253 254 254 257 259 262 266 269 269 272 271 280 279 275 285 287 278 290 286 295 282 283 295 287 291 293 298 284 234 233 236 239 244 254 275 315 277 318 285 288 294 301
219 225 229 229 235 237 241 234 243 246 247 249 253 255 256 258 261 265 268 270 272 275 275 271 279 279 278 278 293 289 288 280 283 291 290 289 294 295 225 220 224 226 230 237 246 258 266 274 282 282 287 291 294 299
221 224 228 232 238 243 239 242 244 247 250 252 254 257 262 264 265 267 270 273 273 270 277 277 285 277 284 295 291 281 282 290 288 288 293 270 218 214 211 215 220 223 227 236 248 258 264 272 277 283 292 293 299 309
225 227 229 234 234 239 241 243 246 249 250 255 258 260 264 266 268 270 271 273 274 278 282 283 284 294 285 284 283 289 286 287 293 285 216 214 207 205 286 213 215 220 231 237 247 258 270 273 280 286 301 297 314 312